IGO2516 VEAT-VECC

Flight info

Callsign IGO2516
Flight time 0h 35m
Altitude 24000
Route AAT B593 NOKAT NOKAT2A
Aircraft A20N/M-SDE2E3FGHIRWXY/LB1

Departure

Time 2026-05-08 17:01
Airport Agartala - Maharaja Bir Bikram Airport (VEAT)

Arrival

Time 2026-05-08 17:36
Airport Netaji Subhash Chandra Bose International Airport (VECC)
Time Latitude Longitude Altitude Speed Heading
2026-05-08 17:00 23.91428 91.37050 7885 ft 284 kts 212°
2026-05-08 17:01 23.89743 91.35925 7883 ft 284 kts 214°
2026-05-08 17:01 23.88067 91.34786 7884 ft 284 kts 213°
2026-05-08 17:01 23.86372 91.33672 7885 ft 284 kts 212°
2026-05-08 17:01 23.84660 91.32582 7903 ft 286 kts 212°
2026-05-08 17:02 23.82924 91.31498 8295 ft 289 kts 211°
2026-05-08 17:02 23.81172 91.30416 9457 ft 288 kts 211°
2026-05-08 17:02 23.79423 91.29338 10689 ft 295 kts 211°
2026-05-08 17:02 23.77562 91.28188 11378 ft 319 kts 211°
2026-05-08 17:03 23.75567 91.26955 12051 ft 338 kts 211°
2026-05-08 17:03 23.73497 91.25679 13150 ft 343 kts 211°
2026-05-08 17:03 23.71411 91.24402 14259 ft 346 kts 210°
2026-05-08 17:03 23.69190 91.23324 15251 ft 352 kts 202°
2026-05-08 17:04 23.66813 91.22592 16244 ft 359 kts 194°
2026-05-08 17:04 23.64322 91.22184 17203 ft 365 kts 191°
2026-05-08 17:04 23.61782 91.21815 18149 ft 370 kts 191°
2026-05-08 17:04 23.59222 91.21434 18986 ft 373 kts 191°
2026-05-08 17:05 23.56675 91.21050 19829 ft 376 kts 191°
2026-05-08 17:05 23.54066 91.20655 20660 ft 380 kts 191°
2026-05-08 17:05 23.51437 91.20257 21489 ft 383 kts 191°
2026-05-08 17:05 23.48812 91.19722 22281 ft 384 kts 200°
2026-05-08 17:06 23.46366 91.18584 23069 ft 383 kts 212°
2026-05-08 17:06 23.44221 91.16861 23614 ft 384 kts 224°
2026-05-08 17:06 23.42509 91.14643 23803 ft 385 kts 237°
2026-05-08 17:06 23.41300 91.11969 23878 ft 405 kts 249°
2026-05-08 17:07 23.40451 91.08961 23881 ft 425 kts 252°
2026-05-08 17:07 23.39587 91.05821 23882 ft 442 kts 252°
2026-05-08 17:07 23.38686 91.02566 23885 ft 456 kts 252°
2026-05-08 17:07 23.37756 90.99237 23879 ft 461 kts 252°
2026-05-08 17:08 23.36822 90.95911 23884 ft 461 kts 252°
2026-05-08 17:08 23.35879 90.92568 23892 ft 461 kts 251°
2026-05-08 17:08 23.34937 90.89233 23889 ft 461 kts 251°
2026-05-08 17:08 23.33992 90.85893 23887 ft 461 kts 251°
2026-05-08 17:09 23.33046 90.82559 23893 ft 461 kts 251°
2026-05-08 17:09 23.32096 90.79224 23896 ft 462 kts 251°
2026-05-08 17:09 23.31144 90.75886 23890 ft 462 kts 251°
2026-05-08 17:09 23.30189 90.72545 23897 ft 462 kts 251°
2026-05-08 17:10 23.29236 90.69210 23898 ft 462 kts 251°
2026-05-08 17:10 23.28281 90.65870 23902 ft 463 kts 251°
2026-05-08 17:10 23.27325 90.62530 23901 ft 463 kts 251°
2026-05-08 17:10 23.26367 90.59183 23895 ft 463 kts 251°
2026-05-08 17:11 23.25410 90.55843 23900 ft 463 kts 251°
2026-05-08 17:11 23.24451 90.52501 23902 ft 463 kts 251°
2026-05-08 17:11 23.23491 90.49157 23899 ft 464 kts 251°
2026-05-08 17:11 23.22529 90.45812 23898 ft 464 kts 251°
2026-05-08 17:12 23.21570 90.42462 23901 ft 464 kts 251°
2026-05-08 17:12 23.20635 90.39107 23904 ft 464 kts 252°
2026-05-08 17:12 23.19710 90.35746 23902 ft 464 kts 252°
2026-05-08 17:12 23.18784 90.32384 23898 ft 464 kts 252°
2026-05-08 17:13 23.17856 90.29027 23901 ft 464 kts 252°
2026-05-08 17:13 23.16925 90.25669 23902 ft 464 kts 252°
2026-05-08 17:13 23.15991 90.22311 23901 ft 464 kts 252°
2026-05-08 17:13 23.15056 90.18953 23902 ft 464 kts 252°
2026-05-08 17:14 23.14121 90.15595 23899 ft 464 kts 252°
2026-05-08 17:14 23.13186 90.12245 23902 ft 464 kts 252°
2026-05-08 17:14 23.12248 90.08885 23899 ft 464 kts 252°
2026-05-08 17:14 23.11309 90.05526 23901 ft 465 kts 252°
2026-05-08 17:15 23.10370 90.02170 23899 ft 465 kts 252°
2026-05-08 17:15 23.09443 89.98858 23901 ft 464 kts 252°
2026-05-08 17:15 23.08486 89.95456 23896 ft 465 kts 252°
2026-05-08 17:15 23.07539 89.92152 23901 ft 465 kts 251°
2026-05-08 17:16 23.06574 89.88801 23901 ft 465 kts 251°
2026-05-08 17:16 23.05607 89.85448 23896 ft 465 kts 251°
2026-05-08 17:16 23.04643 89.82099 23895 ft 465 kts 251°
2026-05-08 17:16 23.03677 89.78747 23895 ft 465 kts 251°
2026-05-08 17:17 23.02713 89.75398 23893 ft 465 kts 251°
2026-05-08 17:17 23.01748 89.72048 23896 ft 465 kts 251°
2026-05-08 17:17 23.00781 89.68696 23902 ft 465 kts 251°
2026-05-08 17:17 22.99814 89.65345 23902 ft 465 kts 251°
2026-05-08 17:18 22.98845 89.61993 23897 ft 465 kts 251°
2026-05-08 17:18 22.97879 89.58651 23896 ft 462 kts 251°
2026-05-08 17:18 22.96946 89.55422 23900 ft 433 kts 251°
2026-05-08 17:18 22.96073 89.52401 23903 ft 406 kts 251°
2026-05-08 17:19 22.95253 89.49568 23902 ft 384 kts 251°
2026-05-08 17:19 22.94446 89.46787 23772 ft 391 kts 251°
2026-05-08 17:19 22.93626 89.43970 23566 ft 391 kts 251°
2026-05-08 17:19 22.92808 89.41159 23319 ft 390 kts 251°
2026-05-08 17:20 22.91995 89.38361 23062 ft 388 kts 251°
2026-05-08 17:20 22.91183 89.35572 22800 ft 387 kts 251°
2026-05-08 17:20 22.90373 89.32790 22541 ft 386 kts 251°
2026-05-08 17:20 22.89566 89.30022 22291 ft 385 kts 251°
2026-05-08 17:21 22.88759 89.27253 21732 ft 385 kts 251°
2026-05-08 17:21 22.87951 89.24484 21194 ft 381 kts 251°
2026-05-08 17:21 22.87171 89.21811 21012 ft 363 kts 251°
2026-05-08 17:21 22.86426 89.19257 20845 ft 347 kts 251°
2026-05-08 17:22 22.85706 89.16794 20375 ft 341 kts 252°
2026-05-08 17:22 22.84991 89.14353 19810 ft 339 kts 252°
2026-05-08 17:22 22.84279 89.11923 19239 ft 337 kts 252°
2026-05-08 17:22 22.83571 89.09507 18699 ft 335 kts 252°
2026-05-08 17:23 22.82867 89.07107 18059 ft 335 kts 252°
2026-05-08 17:23 22.82148 89.04654 16902 ft 347 kts 252°
2026-05-08 17:23 22.81401 89.02106 15590 ft 362 kts 252°
2026-05-08 17:23 22.80634 88.99494 14520 ft 371 kts 252°
2026-05-08 17:24 22.79864 88.96872 14178 ft 356 kts 252°
2026-05-08 17:24 22.79133 88.94381 14007 ft 338 kts 253°
2026-05-08 17:24 22.78556 88.91980 13843 ft 321 kts 256°
2026-05-08 17:24 22.78024 88.89661 13413 ft 315 kts 256°
2026-05-08 17:25 22.77496 88.87365 12854 ft 313 kts 256°
2026-05-08 17:25 22.76990 88.85079 12315 ft 311 kts 261°
2026-05-08 17:25 22.76940 88.83611 11972 ft 310 kts 275°
2026-05-08 17:26 22.77430 88.81339 11456 ft 309 kts 285°
2026-05-08 17:26 22.78111 88.79139 10915 ft 307 kts 289°
2026-05-08 17:26 22.78903 88.76998 10400 ft 306 kts 291°
2026-05-08 17:26 22.79725 88.74851 9233 ft 314 kts 291°
2026-05-08 17:27 22.80577 88.72611 7635 ft 330 kts 291°
2026-05-08 17:27 22.81473 88.70250 5751 ft 349 kts 291°
2026-05-08 17:27 22.82409 88.67769 4127 ft 357 kts 291°
2026-05-08 17:27 22.83340 88.65313 3141 ft 345 kts 291°
2026-05-08 17:28 22.84224 88.62991 2605 ft 321 kts 291°
2026-05-08 17:28 22.85044 88.60840 2294 ft 296 kts 291°
2026-05-08 17:28 22.85807 88.58879 2116 ft 270 kts 290°
2026-05-08 17:28 22.86400 88.57039 2020 ft 246 kts 287°
2026-05-08 17:29 22.86892 88.55353 2012 ft 223 kts 286°
2026-05-08 17:29 22.87335 88.53822 2011 ft 202 kts 287°
2026-05-08 17:29 22.87743 88.52447 2019 ft 181 kts 287°
2026-05-08 17:29 22.88111 88.51232 2011 ft 159 kts 287°
2026-05-08 17:30 22.88453 88.50117 2028 ft 164 kts 287°
2026-05-08 17:30 22.88750 88.48933 2011 ft 161 kts 270°
2026-05-08 17:30 22.88378 88.47828 2010 ft 160 kts 224°
2026-05-08 17:30 22.87744 88.47441 2024 ft 161 kts 198°
2026-05-08 17:31 22.86263 88.47198 2014 ft 161 kts 185°
2026-05-08 17:31 22.85524 88.47134 2014 ft 161 kts 186°
2026-05-08 17:31 22.84047 88.46966 2011 ft 161 kts 187°
2026-05-08 17:31 22.82931 88.46834 2007 ft 161 kts 187°
2026-05-08 17:32 22.81818 88.46703 2008 ft 161 kts 187°
2026-05-08 17:32 22.80705 88.46572 2009 ft 161 kts 187°
2026-05-08 17:32 22.79590 88.46441 2005 ft 161 kts 187°
2026-05-08 17:32 22.78476 88.46309 2002 ft 159 kts 187°
2026-05-08 17:33 22.77428 88.46186 1972 ft 145 kts 187°
2026-05-08 17:33 22.76431 88.46068 1802 ft 143 kts 187°
2026-05-08 17:33 22.75448 88.45953 1629 ft 141 kts 186°
2026-05-08 17:33 22.74504 88.45842 1449 ft 133 kts 186°
2026-05-08 17:34 22.73559 88.45730 1284 ft 136 kts 186°
2026-05-08 17:34 22.72622 88.45620 1102 ft 135 kts 186°
2026-05-08 17:34 22.71990 88.45546 991 ft 135 kts 186°
2026-05-08 17:34 22.70756 88.45401 776 ft 134 kts 187°
2026-05-08 17:35 22.69832 88.45292 609 ft 133 kts 187°
2026-05-08 17:35 22.69225 88.45221 496 ft 133 kts 187°
2026-05-08 17:35 22.68003 88.45085 235 ft 132 kts 186°
2026-05-08 17:35 22.67097 88.44981 51 ft 131 kts 186°
2026-05-08 17:36 22.66501 88.44912 30 ft 120 kts 187°
2026-05-08 17:36 22.65882 88.44835 29 ft 62 kts 186°
2026-05-08 17:36 22.65515 88.44789 29 ft 52 kts 186°
2026-05-08 17:36 22.65177 88.44749 27 ft 41 kts 186°
2026-05-08 17:37 22.64903 88.44663 27 ft 41 kts 213°
2026-05-08 17:37 22.64671 88.44493 27 ft 36 kts 215°
2026-05-08 17:37 22.64590 88.44467 28 ft 11 kts 182°
2026-05-08 17:37 22.64494 88.44460 28 ft 17 kts 185°
2026-05-08 17:38 22.64359 88.44446 28 ft 22 kts 187°
2026-05-08 17:38 22.64201 88.44417 29 ft 16 kts 212°
2026-05-08 17:38 22.64147 88.44314 28 ft 18 kts 211°
2026-05-08 17:38 22.64021 88.44287 28 ft 5 kts 204°
2026-05-08 17:39 22.64005 88.44257 28 ft 7 kts 263°
2026-05-08 17:39 22.64013 88.44177 28 ft 14 kts 277°
2026-05-08 17:39 22.64071 88.44131 28 ft 14 kts 359°
2026-05-08 17:39 22.64136 88.44135 28 ft 1 kts 346°
2026-05-08 17:40 22.64148 88.44116 28 ft 6 kts 291°
2026-05-08 17:40 22.64154 88.44056 28 ft 8 kts 275°
2026-05-08 17:40 22.64155 88.44046 28 ft 0 kts 275°